This is the latest recevied weather packets stored in our database for station/object WX9WTF. If no packets are shown the sender has not sent any weather packets the latest 10 day(s).
| Time | Temp. | Humidity | Pressure | Rain* | Wind** | Luminosity | Snow |
|---|---|---|---|---|---|---|---|
| 1777925582 | 28.33° C | 45% | 1003 hPa | 0 mm | - | 579 W/m² | - |
| 1777925279 | 28.33° C | 43% | 1003 hPa | 0 mm | - | 654 W/m² | - |
| 1777924975 | 28.33° C | 47% | 1003.2 hPa | 0 mm | - | 661 W/m² | - |
| 1777924672 | 28.33° C | 48% | 1003.2 hPa | 0 mm | - | 667 W/m² | - |
| 1777924368 | 27.78° C | 45% | 1003.2 hPa | 0 mm | - | 679 W/m² | - |
| 1777924065 | 27.78° C | 47% | 1003 hPa | 0 mm | - | 696 W/m² | - |
| 1777923761 | 28.33° C | 50% | 1003.3 hPa | 0 mm | - | 716 W/m² | - |
| 1777923457 | 27.78° C | 45% | 1003.3 hPa | 0 mm | - | 740 W/m² | - |
| 1777923155 | 27.78° C | 49% | 1003.3 hPa | 0 mm | - | 762 W/m² | - |
| 1777922853 | 27.22° C | 49% | 1003.2 hPa | 0 mm | - | 567 W/m² | - |
| 1777922551 | 27.78° C | 50% | 1003.3 hPa | 0 mm | - | 735 W/m² | - |
| 1777922249 | 27.78° C | 48% | 1003.4 hPa | 0 mm | - | 883 W/m² | - |
| 1777921946 | 27.22° C | 48% | 1003.4 hPa | 0 mm | - | 860 W/m² | - |
| 1777921641 | 26.67° C | 47% | 1003.7 hPa | 0 mm | - | 857 W/m² | - |
| 1777921338 | 27.22° C | 48% | 1003.7 hPa | 0 mm | - | 858 W/m² | - |
| 1777921034 | 26.67° C | 47% | 1003.6 hPa | 0 mm | - | 896 W/m² | - |
| 1777920731 | 26.67° C | 50% | 1003.5 hPa | 0 mm | - | 914 W/m² | - |
| 1777920427 | 26.67° C | 49% | 1003.7 hPa | 0 mm | - | 895 W/m² | - |
| 1777920123 | 26.11° C | 50% | 1003.8 hPa | 0 mm | - | 854 W/m² | - |
| 1777919819 | 26.67° C | 46% | 1003.9 hPa | 0 mm | - | 894 W/m² | - |
| 1777919516 | 26.11° C | 47% | 1003.9 hPa | 0 mm | - | 892 W/m² | - |
| 1777919214 | 26.67° C | 47% | 1003.8 hPa | 0 mm | - | 893 W/m² | - |
| 1777918912 | 26.11° C | 50% | 1003.6 hPa | 0 mm | - | 888 W/m² | - |
| 1777918609 | 25.56° C | 48% | 1003.9 hPa | 0 mm | - | 890 W/m² | - |
| 1777918307 | 25.56° C | 49% | 1004 hPa | 0 mm | - | 892 W/m² | - |
* Rain latest hour (hover to see other rain measurements)
** Current wind speed in m/s (hover to see current wind gust speed)